[[{"header":{"parameterUnit":"m.s-1","parameterCategory":1,"la1":30.2991,"la2":30.254,"lo1":-89.0895,"lo2":-89.0444,"dy":0.0017,"dx":0.0017,"nx":28,"ny":28,"refTime":"2024-02-01T09:00:00:Z","depth":0,"parameterNumber":2,"parameterNumberName":"U-component_of_WINDS"},"data":[0,0,0,0,0,0,0,0,0,0,0,0,0,0,0,0,0,0,0,0,0,0,0,0,0,0,0,0,0,0,0,0,0,0,0,0,0,0,0,0,0,0,0,0,0,0,0,0,0,0,0,0,0,0,0,0,0,0,-0.2252,-0.2252,0,-0.2237,-0.2237,-0.2237,-0.2219,-0.2218,-0.2218,-0.2218,-0.2204,-0.2204,-0.2204,0,0,0,0,0,0,0,0,0,0,0,0,0,-0.2265,-0.2265,-0.2252,-0.2252,-0.2252,-0.2237,-0.2237,-0.2237,-0.2219,-0.2218,-0.2218,-0.2218,-0.2204,-0.2204,-0.2204,0,0,0,0,0,0,0,0,0,0,0,0,0,-0.2256,-0.2265,-0.2252,-0.2241,-0.2239,-0.2237,-0.2237,-0.2237,-0.2219,-0.2218,-0.2218,-0.2217,-0.2204,-0.2204,-0.2204,-0.2212,0,0,-0.2204,-0.2204,0,0,0,0,0,0,0,0,-0.2256,-0.2255,-0.2242,-0.2241,-0.224,-0.2229,-0.2237,-0.2229,-0.2219,-0.2227,-0.2218,-0.2217,-0.2213,-0.2212,-0.221,-0.2212,-0.2211,-0.2204,-0.2204,-0.2204,-0.2204,0,0,0,0,0,0,0,-0.2257,-0.2256,-0.2246,-0.2242,-0.2241,-0.2237,-0.2235,-0.2235,-0.2223,-0.2226,-0.2225,-0.2223,-0.2212,-0.2211,-0.221,-0.2211,-0.2204,-0.2204,-0.2204,-0.2203,-0.2219,-0.2219,0,0,0,0,0,0,-0.2259,-0.2257,-0.2247,-0.2246,-0.2247,-0.2237,-0.2235,-0.2233,-0.2223,-0.222,-0.2223,-0.2222,-0.2211,-0.221,-0.2209,-0.2219,-0.2204,-0.2203,-0.2203,-0.2218,-0.2219,-0.2219,0,0,0,0,0,0,-0.226,-0.2259,-0.2247,-0.2251,-0.2249,-0.2237,-0.2235,-0.2233,-0.2231,-0.2221,-0.2218,-0.2224,-0.2211,-0.221,-0.2212,-0.2218,-0.2203,-0.2203,-0.2218,-0.2218,-0.2219,-0.2237,0,0,0,0,0,0,-0.226,-0.2259,-0.2262,-0.2251,-0.2249,-0.225,-0.2236,-0.2233,-0.2231,-0.2229,-0.2221,-0.2219,-0.221,-0.2212,-0.2212,-0.2218,-0.2203,-0.2217,-0.2218,-0.2219,-0.2236,-0.2239,-0.2241,0,0,0,0,0,-0.2261,-0.2268,-0.2262,-0.2261,-0.2252,-0.225,-0.2249,-0.2239,-0.2232,-0.2235,-0.2228,-0.2219,-0.2217,-0.2212,-0.2212,-0.2218,-0.2217,-0.2218,-0.2219,-0.2235,-0.2238,-0.2241,0,0,0,0,0,0,-0.228,-0.2266,-0.2259,-0.2263,-0.2258,-0.2247,-0.225,-0.2242,-0.2239,-0.2237,-0.2225,-0.2223,-0.2227,-0.2223,-0.2217,-0.2225,-0.2216,-0.2217,-0.2228,-0.2231,-0.2233,-0.2234,-0.2203,0,0,0,0,0,-0.2284,-0.2283,-0.2271,-0.2276,-0.2273,-0.2262,-0.2261,-0.2253,-0.2248,-0.2245,-0.2239,-0.2234,-0.2232,-0.2231,-0.2229,-0.2235,-0.2233,-0.2239,-0.2241,-0.2243,-0.2244,-0.2247,-0.225,-0.2223,-0.2223,-0.2223,0,0,-0.2294,-0.2286,-0.2286,-0.2279,-0.2274,-0.2274,-0.2261,-0.2261,-0.226,-0.2246,-0.2247,-0.2242,-0.2236,-0.224,-0.2241,-0.2236,-0.2251,-0.2245,-0.2246,-0.2246,-0.2249,-0.2251,-0.2254,-0.2224,-0.2223,-0.2223,0,0,-0.2311,-0.2305,-0.2308,-0.2303,-0.2296,-0.2288,-0.2289,-0.2279,-0.2275,-0.2276,-0.2265,-0.2265,-0.2262,-0.2258,-0.2256,-0.2271,-0.2263,-0.2271,-0.2283,-0.2286,-0.2288,-0.229,-0.2296,-0.2298,-0.2272,-0.2272,-0.2272,0,-0.2324,-0.2323,-0.2311,-0.2312,-0.2309,-0.2295,-0.2298,-0.2294,-0.2287,-0.2285,-0.2279,-0.2276,-0.2271,-0.2274,-0.2278,-0.2276,-0.2277,-0.2272,-0.2289,-0.229,-0.2292,-0.2297,-0.23,-0.2273,-0.2273,-0.2273,-0.2273,0,-0.2339,-0.2338,-0.2342,-0.2334,-0.2332,-0.2334,-0.2323,-0.2322,-0.2315,-0.2308,-0.231,-0.2303,-0.2299,-0.2299,-0.2292,-0.2301,-0.2298,-0.2291,-0.2281,-0.2296,-0.2301,-0.2303,-0.2274,-0.2274,-0.2274,-0.2274,0,0,-0.2369,-0.2354,-0.2355,-0.2352,-0.2342,-0.2342,-0.2343,-0.2339,-0.2339,-0.2334,-0.2335,-0.2333,-0.2326,-0.2323,-0.2316,-0.2318,-0.2331,-0.231,-0.231,-0.2315,-0.2341,-0.2347,-0.235,-0.2326,-0.2326,-0.2326,-0.2342,0,-0.2384,-0.2385,-0.2375,-0.2379,-0.2378,-0.2365,-0.2366,-0.2361,-0.2354,-0.2353,-0.2346,-0.2345,-0.2336,-0.2334,-0.2336,-0.2329,-0.2337,-0.2328,-0.2327,-0.2328,-0.233,-0.2352,-0.2359,-0.2374,-0.2344,-0.2344,-0.2344,0,-0.2403,-0.2398,-0.2402,-0.2392,-0.2392,-0.2393,-0.2388,-0.2387,-0.2381,-0.2376,-0.2373,-0.2364,-0.2365,-0.2356,-0.2357,-0.2352,-0.2351,-0.2348,-0.2348,-0.2348,-0.2337,-0.2353,-0.2378,-0.2381,-0.2347,-0.2347,-0.2347,0,-0.2424,-0.2419,-0.2421,-0.2418,-0.2406,-0.2408,-0.2403,-0.2396,-0.2394,-0.2391,-0.2389,-0.2386,-0.2384,-0.2382,-0.2372,-0.2366,-0.2375,-0.2365,-0.2372,-0.2372,-0.2375,-0.2375,-0.24,-0.2374,-0.2374,-0.2374,-0.2374,0,-0.2443,-0.2446,-0.243,-0.2431,-0.2434,-0.2422,-0.2426,-0.242,-0.2414,-0.2414,-0.2403,-0.2403,-0.239,-0.239,-0.2382,-0.2385,-0.2384,-0.2381,-0.2379,-0.2382,-0.2383,-0.2382,-0.238,-0.2374,-0.2374,-0.2374,-0.2374,0,-0.2467,-0.2456,-0.2458,-0.2446,-0.2444,-0.2447,-0.2437,-0.2438,-0.2431,-0.2431,-0.2431,-0.242,-0.2418,-0.2408,-0.2405,-0.24,-0.2406,-0.2401,-0.2408,-0.2406,-0.2414,-0.2414,-0.244,-0.2443,-0.2414,-0.2415,-0.2415,0,-0.248,-0.2482,-0.2471,-0.2469,-0.2465,-0.2464,-0.2462,-0.245,-0.2448,-0.2441,-0.2443,-0.244,-0.2438,-0.2436,-0.2428,-0.2425,-0.2421,-0.2431,-0.2421,-0.2424,-0.2422,-0.2422,-0.2422,-0.2433,-0.2433,-0.2434,-0.2434,0,-0.2504,-0.2498,-0.2495,-0.2491,-0.2488,-0.2484,-0.248,-0.248,-0.2467,-0.2466,-0.2464,-0.2462,-0.2458,-0.2455,-0.2451,-0.2447,-0.2439,-0.2437,-0.2439,-0.2442,-0.2445,-0.2444,-0.2414,-0.2437,-0.2436,-0.2436,-0.2436,-0.2436,-0.2522,-0.2524,-0.2516,-0.2513,-0.2508,-0.2504,-0.2504,-0.2497,-0.2495,-0.2491,-0.2484,-0.2483,-0.2477,-0.247,-0.2467,-0.2466,-0.2461,-0.2463,-0.2464,-0.2465,-0.2466,-0.2445,-0.2465,-0.2465,-0.2465,-0.2465,-0.2465,0,-0.2546,-0.254,-0.2538,-0.2531,-0.2529,-0.2521,-0.2515,-0.2514,-0.2513,-0.2508,-0.2505,-0.2503,-0.2501,-0.2493,-0.249,-0.2491,-0.2487,-0.249,-0.249,-0.249,-0.2471,-0.247,-0.2494,-0.2494,-0.2494,-0.2494,-0.2494,-0.2494,-0.2558,-0.2559,-0.2553,-0.2552,-0.2546,-0.2545,-0.2542,-0.2539,-0.2534,-0.2532,-0.253,-0.2525,-0.2518,-0.2515,-0.2512,-0.251,-0.251,-0.2515,-0.2511,-0.2494,-0.2491,-0.2488,-0.2487,-0.2515,-0.2515,-0.253,-0.253,-0.253]},{"header":{"parameterUnit":"m.s-1","parameterCategory":1,"la1":30.2991,"la2":30.254,"lo1":-89.0895,"lo2":-89.0444,"dy":0.0017,"dx":0.0017,"nx":28,"ny":28,"refTime":"2024-02-01T09:00:00:Z","depth":0,"parameterNumber":3,"parameterNumberName":"V-component_of_WINDS"},"data":[0,0,0,0,0,0,0,0,0,0,0,0,0,0,0,0,0,0,0,0,0,0,0,0,0,0,0,0,0,0,0,0,0,0,0,0,0,0,0,0,0,0,0,0,0,0,0,0,0,0,0,0,0,0,0,0,0,0,1.1365,1.1366,0,1.1417,1.1418,1.1418,1.1411,1.141,1.1409,1.1408,1.1465,1.1467,1.147,0,0,0,0,0,0,0,0,0,0,0,0,0,1.1261,1.1263,1.1365,1.1366,1.1366,1.1417,1.1418,1.1418,1.1411,1.141,1.1409,1.1408,1.1464,1.1467,1.147,0,0,0,0,0,0,0,0,0,0,0,0,0,1.1309,1.1264,1.1365,1.1369,1.137,1.1417,1.1418,1.1419,1.1411,1.141,1.1409,1.1407,1.1463,1.1467,1.147,1.1518,0,0,1.1481,1.1482,0,0,0,0,0,0,0,0,1.1307,1.1313,1.1367,1.1368,1.137,1.1406,1.1402,1.1452,1.1412,1.1396,1.1408,1.1407,1.1447,1.1452,1.1464,1.1521,1.1523,1.1481,1.1483,1.1485,1.1486,0,0,0,0,0,0,0,1.1303,1.1311,1.1386,1.1368,1.137,1.1368,1.1374,1.1411,1.1428,1.1397,1.1396,1.1403,1.1447,1.1461,1.1466,1.1524,1.1481,1.1484,1.1486,1.1488,1.1621,1.1623,0,0,0,0,0,0,1.1299,1.1308,1.1384,1.1387,1.1334,1.1371,1.1377,1.1396,1.1428,1.1431,1.1404,1.1402,1.1456,1.1462,1.1468,1.1525,1.1485,1.1488,1.149,1.162,1.1622,1.1623,0,0,0,0,0,0,1.1296,1.1305,1.1382,1.1348,1.1357,1.1375,1.1395,1.1398,1.1411,1.1433,1.1436,1.1415,1.1455,1.1463,1.1505,1.1527,1.149,1.1493,1.1618,1.162,1.1622,1.1642,0,0,0,0,0,0,1.1293,1.1305,1.1323,1.1348,1.1359,1.1418,1.1397,1.1399,1.1417,1.1415,1.1444,1.1447,1.1454,1.15,1.1509,1.1531,1.1496,1.1616,1.1619,1.1622,1.1639,1.1644,1.1648,0,0,0,0,0,1.129,1.1327,1.1324,1.1333,1.1382,1.142,1.1426,1.1433,1.1419,1.1437,1.1451,1.1446,1.1523,1.1504,1.1514,1.1538,1.1615,1.1618,1.1621,1.1637,1.1643,1.1648,0,0,0,0,0,0,1.1306,1.1331,1.1327,1.1374,1.1394,1.1418,1.1442,1.1439,1.1465,1.1463,1.147,1.1477,1.152,1.1533,1.1512,1.1585,1.1567,1.1572,1.1576,1.1582,1.1586,1.1583,1.1499,0,0,0,0,0,1.1315,1.1342,1.1363,1.1402,1.1412,1.1425,1.1442,1.1445,1.1467,1.1476,1.1493,1.1515,1.1544,1.1563,1.1591,1.164,1.1646,1.1661,1.1666,1.167,1.1675,1.1701,1.1708,1.1634,1.1634,1.1634,0,0,1.1334,1.1351,1.1368,1.1405,1.1422,1.1451,1.1433,1.1465,1.1486,1.1481,1.1522,1.1535,1.156,1.1606,1.1627,1.1618,1.1696,1.1674,1.1677,1.168,1.1705,1.1712,1.1718,1.1636,1.1636,1.1635,0,0,1.1384,1.1399,1.1433,1.1449,1.1473,1.1481,1.1489,1.1513,1.152,1.1561,1.1557,1.1583,1.1633,1.1651,1.1667,1.172,1.1717,1.1729,1.1754,1.1779,1.1785,1.1791,1.181,1.1816,1.1734,1.1734,1.1734,0,1.1405,1.1447,1.1451,1.1482,1.1499,1.1493,1.1528,1.1543,1.1576,1.1588,1.1577,1.1639,1.1656,1.1705,1.1717,1.173,1.174,1.1727,1.1784,1.1789,1.1794,1.1812,1.182,1.1735,1.1735,1.1735,1.1735,0,1.1472,1.1502,1.1526,1.1556,1.1575,1.1608,1.1616,1.1635,1.1636,1.1645,1.1686,1.1705,1.1736,1.1748,1.175,1.1797,1.1791,1.1782,1.1764,1.1802,1.182,1.1827,1.1737,1.1737,1.1736,1.1736,0,0,1.1537,1.1565,1.1574,1.1587,1.1612,1.1635,1.1667,1.1696,1.1712,1.1734,1.1762,1.1803,1.1794,1.1812,1.1815,1.1837,1.1877,1.1825,1.1826,1.1834,1.193,1.1938,1.1946,1.1874,1.1876,1.1877,1.1928,0,1.1589,1.1645,1.1647,1.1699,1.1726,1.1719,1.1747,1.1766,1.1774,1.1799,1.1809,1.1838,1.1824,1.1834,1.1856,1.1868,1.1897,1.1864,1.1901,1.1902,1.1895,1.1955,1.1963,1.2011,1.1935,1.1936,1.1937,0,1.1658,1.168,1.1733,1.1753,1.1764,1.1789,1.1815,1.1838,1.1859,1.1863,1.1882,1.1881,1.1914,1.1893,1.1939,1.1916,1.1931,1.1939,1.1941,1.1946,1.1923,1.1962,1.2026,1.2034,1.1948,1.1947,1.1946,0,1.17,1.1743,1.178,1.1791,1.1815,1.1832,1.1843,1.1862,1.1878,1.1901,1.1912,1.1938,1.1953,1.1974,1.198,1.1964,1.2025,1.2005,1.2031,1.2031,1.2046,1.2045,1.2114,1.2053,1.2053,1.2053,1.2053,0,1.1759,1.1792,1.1799,1.1822,1.1858,1.1861,1.1897,1.1907,1.1923,1.1948,1.1944,1.1968,1.1974,1.1999,1.2004,1.2041,1.2047,1.2052,1.2054,1.2053,1.2053,1.2064,1.2062,1.2055,1.2055,1.2054,1.2054,0,1.1814,1.1819,1.1859,1.1877,1.1882,1.1908,1.1923,1.1945,1.1952,1.1984,1.1991,1.2003,1.2031,1.2039,1.2074,1.2077,1.212,1.2118,1.2113,1.2114,1.2139,1.2136,1.2219,1.223,1.2161,1.2162,1.2162,0,1.1852,1.1876,1.1896,1.1911,1.1922,1.1948,1.1964,1.1966,1.1983,1.2007,1.2026,1.2054,1.2076,1.2122,1.2134,1.216,1.2159,1.2186,1.2163,1.2162,1.216,1.2159,1.2161,1.2191,1.2192,1.2192,1.2193,0,1.1919,1.1919,1.1942,1.1965,1.1984,1.2003,1.2021,1.2034,1.2039,1.2059,1.2087,1.2104,1.2138,1.2166,1.2192,1.2203,1.2199,1.2199,1.2207,1.2208,1.2204,1.2206,1.2126,1.2198,1.2198,1.2197,1.2197,1.2197,1.1967,1.1988,1.2004,1.2029,1.2042,1.2058,1.2079,1.2088,1.2111,1.2138,1.2138,1.2169,1.2187,1.2221,1.2233,1.2258,1.225,1.226,1.2263,1.2266,1.2268,1.2199,1.2262,1.2262,1.2262,1.2262,1.2262,0,1.2034,1.2043,1.2066,1.209,1.2109,1.2101,1.212,1.2137,1.2164,1.218,1.2201,1.2233,1.2259,1.2272,1.2297,1.2314,1.2313,1.2321,1.2321,1.2323,1.2274,1.2265,1.2322,1.2322,1.2322,1.2322,1.2322,1.2322,1.2071,1.2106,1.2109,1.215,1.2159,1.2188,1.2199,1.2214,1.2227,1.2262,1.2283,1.229,1.2305,1.2331,1.2355,1.2358,1.2368,1.2377,1.2379,1.2333,1.2327,1.2321,1.2313,1.2379,1.2379,1.2426,1.2427,1.2427]}]]